Location: Home
(42.5358°N, 72.7383°W)
Time: 05:14:57
(UTC-04:00)

Explorer 11/Cluster Stage 4 - Pass Details

Date: 26 April 2025
Orbit: 463 x 1190 km, 28.8° (Epoch: 11 May)

Event Time Altitude Azimuth Distance (km) Brightness Sun altitude
Rises 06:42:56 0° 253° (WSW) 3,781 9.4 8.1°
Reaches altitude 10° 06:46:40 10° 237° (WSW) 2,690 8.8 8.8°
Maximum altitude 06:50:56 18° 195° (SSW) 1,973 8.5 9.6°
Drops below altitude 10° 06:54:43 10° 153° (SSE) 2,334 9.3 10.3°
Sets 06:57:40 0° 134° (SE) 3,114 10.2 10.8°
